This is the latest recevied weather packets stored in our database for station/object 4S6DRJ-13. If no packets are shown the sender has not sent any weather packets the latest 10 day(s).
| Time | Temp. | Humidity | Pressure | Rain* | Wind** | Luminosity | Snow |
|---|---|---|---|---|---|---|---|
| 1788103570 | 28.33° C | 81% | 1010.7 hPa | 0 mm | 1.34 m/s, 267° | 0 W/m² | - |
| 1788103509 | 28.33° C | 81% | 1010.7 hPa | 0 mm | 0.89 m/s, 240° | 0 W/m² | - |
| 1788103448 | 28.33° C | 81% | 1010.6 hPa | 0 mm | 0.89 m/s, 165° | 0 W/m² | - |
| 1788103387 | 28.33° C | 81% | 1010.7 hPa | 0 mm | 1.79 m/s, 179° | 0 W/m² | - |
| 1788103326 | 28.33° C | 81% | 1010.5 hPa | 0 mm | 0.89 m/s, 211° | 0 W/m² | - |
| 1788103265 | 28.33° C | 81% | 1010.7 hPa | 0 mm | 2.24 m/s, 251° | 0 W/m² | - |
| 1788103204 | 28.33° C | 82% | 1010.6 hPa | 0 mm | 0.45 m/s, 254° | 0 W/m² | - |
| 1788103142 | 28.33° C | 82% | 1010.7 hPa | 0 mm | 0.89 m/s, 48° | 0 W/m² | - |
| 1788103082 | 28.33° C | 82% | 1010.5 hPa | 0 mm | 1.79 m/s, 262° | 0 W/m² | - |
| 1788103020 | 28.33° C | 82% | 1010.7 hPa | 0 mm | 0.45 m/s, 182° | 0 W/m² | - |
| 1788102960 | 28.33° C | 82% | 1010.5 hPa | 0 mm | 0.89 m/s, 260° | 0 W/m² | - |
| 1788102899 | 28.33° C | 82% | 1010.6 hPa | 0 mm | 0.89 m/s, 192° | 0 W/m² | - |
| 1788102837 | 28.33° C | 82% | 1010.4 hPa | 0 mm | 0.45 m/s, 225° | 0 W/m² | - |
| 1788102776 | 28.33° C | 82% | 1010.5 hPa | 0 mm | 1.34 m/s, 158° | 0 W/m² | - |
| 1788102715 | 28.33° C | 82% | 1010.5 hPa | 0 mm | 0.89 m/s, 290° | 0 W/m² | - |
| 1788102655 | 28.33° C | 82% | 1010.5 hPa | 0 mm | 0 m/s | 0 W/m² | - |
| 1788102594 | 28.33° C | 82% | 1010.6 hPa | 0 mm | 0.89 m/s, 238° | 0 W/m² | - |
| 1788102533 | 28.33° C | 82% | 1010.4 hPa | 0 mm | 1.79 m/s, 234° | 0 W/m² | - |
| 1788102472 | 28.33° C | 82% | 1010.3 hPa | 0 mm | 0.89 m/s, 228° | 0 W/m² | - |
| 1788102410 | 28.33° C | 82% | 1010.4 hPa | 0 mm | 0.89 m/s, 210° | 0 W/m² | - |
| 1788102349 | 28.33° C | 82% | 1010.5 hPa | 0 mm | 0.89 m/s, 188° | 0 W/m² | - |
| 1788102298 | 28.33° C | 82% | 1010.6 hPa | 0 mm | 1.79 m/s, 247° | 0 W/m² | - |
| 1788102228 | 28.33° C | 82% | 1010.4 hPa | 0 mm | 0.45 m/s, 257° | 0 W/m² | - |
| 1788102166 | 28.33° C | 82% | 1010.7 hPa | 0 mm | 0.89 m/s, 225° | 0 W/m² | - |
| 1788102105 | 28.33° C | 83% | 1010.5 hPa | 0 mm | 1.34 m/s, 243° | 0 W/m² | - |
* Rain latest hour (hover to see other rain measurements)
** Current wind speed in m/s (hover to see current wind gust speed)